Printer-friendly version
Follow the MPC on Twitter Follow the MPC on Facebook The MPC blog
Minor Planet Center

MPEC 2010-M52 : 2010 MW1

The following Minor Planet Electronic Circular may be linked-to from your own Web pages, but must not otherwise be redistributed electronically.

A form allowing access to any MPEC is at the bottom of this page.


Read MPEC 2010-M51 Read MPEC 2010-M53


M.P.E.C. 2010-M52                                Issued 2010 June 24, 04:31 UT

     The Minor Planet Electronic Circulars contain information on unusual
         minor planets and routine data on comets.  They are published
   on behalf of Commission 20 of the International Astronomical Union by the
          Minor Planet Center, Smithsonian Astrophysical Observatory,
                          Cambridge, MA 02138, U.S.A.

             Prepared using the Tamkin Foundation Computer Network

                              MPC@CFA.HARVARD.EDU
       URL http://www.minorplanetcenter.org/iau/mpc.html  ISSN 1523-6714

                                   2010 MW1

Observations:
     K10M01W* C2010 06 22.27179 17 20 49.48 +07 01 06.7          20.2 V EM052G96
     K10M01W  C2010 06 22.27811 17 20 48.98 +07 01 24.0          19.9 V EM052G96
     K10M01W  C2010 06 22.29082 17 20 47.97 +07 01 58.3          20.2 V EM052G96
     K10M01W  C2010 06 22.35177 17 20 43.11 +07 04 43.7          20.1 V EM052G96
     K10M01W  C2010 06 22.35345 17 20 43.00 +07 04 48.2          20.4 V EM052G96
     K10M01W  C2010 06 22.35679 17 20 42.72 +07 04 57.2          20.6 V EM052G96
     K10M01W  C2010 06 22.43051 17 20 36.92 +07 08 16.5          20.3 V EM052G96
     K10M01W  C2010 06 22.43113 17 20 36.88 +07 08 18.3          19.9 V EM052G96
     K10M01W  C2010 06 22.43176 17 20 36.81 +07 08 20.0          19.7 V EM052G96
     K10M01W  C2010 06 22.43236 17 20 36.81 +07 08 21.6          19.8 V EM052G96
     K10M01W KC2010 06 22.87737 17 20 04.73 +07 28 23.0                 EM052587
     K10M01W KC2010 06 22.88905 17 20 03.89 +07 28 55.1          20.2 R EM052587
     K10M01W  C2010 06 23.29736 17 19 33.24 +07 47 20.5          19.8 V EM052G96
     K10M01W  C2010 06 23.29796 17 19 33.13 +07 47 22.0          20.0 V EM052G96
     K10M01W KC2010 06 23.97882 17 18 42.77 +08 17 48.5                 EM052J95
     K10M01W KC2010 06 24.04463 17 18 37.62 +08 20 44.7                 EM052J95
     K10M01W KC2010 06 24.07605 17 18 35.17 +08 22 09.0          20.4 R EM052J95

Observer details:
587 Sormano.  Observers F. Manca, A. Testa.  Measurer F. Manca.  0.5-m f/6.8
    reflector + CCD.
G96 Mt. Lemmon Survey.  Observer A. R. Gibbs.  Measurers J. D. Ahern,
    E. C. Beshore, A. Boattini, G. J. Garradd, A. R. Gibbs, A. D. Grauer,
    R. E. Hill, R. A. Kowalski, S. M. Larson, R. H. McNaught.  1.5-m reflector
    + CCD.
J95 Great Shefford.  Observer P. Birtwhistle.  0.40-m f/6.0 Schmidt-Cassegrain
    + CCD.

Orbital elements:
2010 MW1                                                 Earth MOID = 0.4932 AU
Epoch 2010 July 23.0 TT = JDT 2455400.5                 MPC
M 347.27074              (2000.0)            P               Q
n   0.24007913     Peri.   90.38323     +0.81233852     +0.43516621
a   2.5638923      Node   243.85847     -0.53098566     +0.82720151
e   0.5271799      Incl.   25.62555     +0.24116458     +0.35548282
P   4.11           H   19.5           G   0.15           U   8
Residuals in seconds of arc
100622 G96  0.1-  0.1-    100622 G96  0.1-  0.0     100623 G96  0.6+  0.2+
100622 G96  0.1-  0.0     100622 G96  0.0   0.1+    100623 G96  0.3-  0.1+
100622 G96  0.0   0.2-    100622 G96  0.3-  0.1+    100623 J95  0.2+  0.0
100622 G96  0.0   0.1+    100622 G96  0.4+  0.1+    100624 J95  0.0   0.1-
100622 G96  0.3+  0.1+    100622 587  0.8-  0.4-    100624 J95  0.2-  0.1+
100622 G96  0.1+  0.0     100622 587  0.3+  0.1+

Ephemeris:
2010 MW1                 a,e,i = 2.56, 0.53, 26                  q = 1.2123
Date    TT    R. A. (2000) Decl.     Delta      r     Elong.  Phase     V
2010 06 23    17 19.92   +07 34.0    0.555    1.512   147.0    21.4    20.2
2010 07 03    17 08.00   +14 42.0    0.543    1.453   135.2    29.5    20.3
2010 07 13    16 58.40   +20 42.8    0.548    1.398   123.9    37.1    20.4
2010 07 23    16 52.98   +25 23.4    0.563    1.348   114.2    43.4    20.6
2010 08 02    16 52.71   +28 52.5    0.581    1.305   106.5    48.2    20.7
2010 08 12    16 57.95   +31 24.6    0.596    1.268   100.7    51.7    20.8
2010 08 22    17 08.87   +33 14.3    0.608    1.240    96.8    54.1    20.9
2010 09 01    17 25.47   +34 31.3    0.613    1.221    94.5    55.5    20.9
2010 09 11    17 47.95   +35 18.9    0.613    1.213    93.8    55.9    20.9
2010 09 21    18 16.67   +35 36.0    0.609    1.215    94.5    55.5    20.9
2010 10 01    18 51.75   +35 16.1    0.604    1.227    96.6    54.1    20.8
2010 10 11    19 32.88   +34 08.7    0.602    1.250    99.7    51.9    20.8
2010 10 21    20 18.72   +32 07.1    0.609    1.282   103.4    49.1    20.8
2010 10 31    21 06.65   +29 13.6    0.630    1.321   106.8    46.0    20.9
2010 11 10    21 53.74   +25 46.4    0.672    1.368   109.2    43.1    21.0
2010 11 20    22 37.64   +22 14.8    0.736    1.420   110.0    40.9    21.2
2010 11 30    23 17.17   +19 04.9    0.822    1.476   109.1    39.2    21.5
2010 12 10    23 52.30   +16 31.4    0.930    1.536   106.6    37.9    21.8
2010 12 20    00 23.58   +14 38.1    1.055    1.599   103.2    36.8    22.1
2010 12 30    00 51.71   +13 21.1    1.196    1.663    99.0    35.7    22.5
2011 01 09    01 17.40   +12 34.1    1.348    1.729    94.4    34.6    22.8
2011 01 19    01 41.25   +12 10.4    1.510    1.795    89.5    33.2    23.1

Carl W. Hergenrother         (C) Copyright 2010 MPC           M.P.E.C. 2010-M52

Read MPEC 2010-M51 Read MPEC 2010-M53


MPEC number:

Enter an MPEC number in one of the following forms:

  • 1997-B01 (the full form)
  • J97B01 (the packed version of the full form)
  • B01 (the abbreviated form)

Valid HTML 4.01!